{"data":{"norad_id":68133,"epoch":"2026-09-20T21:34:57.267552Z","epoch_age_seconds":43708,"freshness":"FRESH","line1":"1 68133U 26047E   26263.89927393 -.00000102  00000+0  48049-4 0  9991","line2":"2 68133  50.0012  72.7924 0001206  84.1419 275.9590 13.29324442 25804","mean_motion":13.29324442,"eccentricity":0.0001206,"inclination_deg":50.0012,"raan_deg":72.7924,"arg_perigee_deg":84.1419,"mean_anomaly_deg":275.959,"bstar":4.8049e-5,"rev_number":2580,"period_min":108.32569946833,"perigee_km":1148.404643011,"apogee_km":1150.2202638192,"semimajor_km":7527.4494534151,"source":"CELESTRAK","updated_at":"2026-09-21T09:00:17.094834Z"}}